Regional Weather Roundup
Issued by NWS

Home | Current Version | Previous Version | Text Only | Print | Product List | Glossary Off
Versions: 1 2 3 4 5 6 7 8 9 10 11 12 13 14 15 16 17 18 19 20 21 22 23 24 25 26 27 28 29 30 31 32 33 34 35 36 37 38 39 40 41 42 43 44 45 46 47 48 49 50

677
ASUS43 KIND 300759
RWRIN

WEATHER ROUNDUP FOR INDIANA
NATIONAL WEATHER SERVICE INDIANAPOLIS IN
400 AM EDT TUE MAY 30 2017

NOTE: "FAIR" INDICATES FEW OR NO CLOUDS BELOW 12,000 FEET WITH NO
SIGNIFICANT WEATHER AND/OR OBSTRUCTIONS TO VISIBILITY.

* - STATION DOES NOT REPORT WEATHER SUCH AS PRECIPITATION OR FOG.

+ - STATION NOT QUALITY CONTROLLED BY THE NATIONAL WEATHER SERVICE.
    USE DATA WITH CAUTION...ESPECIALLY DEWPOINT AND RELATIVE
    HUMIDITY OBSERVATIONS.

INZ001>003-010>013-019-020-300900-
NORTHWEST INDIANA

CITY           SKY/WX    TMP DP  RH WIND       PRES   REMARKS
MICHIGAN CITY+ CLEAR     50  50 100 CALM      29.92S
MONTICELLO +   CLEAR     56  49  77 SW3       29.92F
RENSSELAER +   CLEAR     55  43  62 W5        29.93F

$$

LMZ046-743>745-300900-
SOUTHERN LAKE MICHIGAN

STATION/POSITION TIME  TEMP    WIND        PRES    WAVE
                       AIR SEA DIR/SP/G            HT
                 (UTC) (F)     (DEG/KT/KT) (MB)    (FT)
BURNS HARBOR     0740   62     220/  6/  7 1013.2S
MICHIGAN CITY    0730   60     150/  5/  6   N/A
5NW MICH CITY    0750   57 56  240/  2/  2   N/A     1

$$

INZ004-005-014>016-021>024-300900-
NORTH CENTRAL INDIANA

CITY           SKY/WX    TMP DP  RH WIND       PRES   REMARKS
GOSHEN         CLEAR     53  47  79 VRB5      29.91S
SOUTH BEND     CLEAR     50  46  86 CALM      29.91S

$$

INZ006>009-017-018-025>027-300900-
NORTHEAST INDIANA

CITY           SKY/WX    TMP DP  RH WIND       PRES   REMARKS
ANGOLA *+      CLEAR     52  52 100 CALM      29.91S
FORT WAYNE     PTCLDY    58  53  84 SW8       29.92F
KENDALLVILLE + CLEAR     55  48  77 SW5       29.91F

$$

INZ028-029-035-036-043>045-051>053-300900-
WEST CENTRAL INDIANA

CITY           SKY/WX    TMP DP  RH WIND       PRES   REMARKS
CRAWFORDSVL +  PTCLDY    54  54 100 SW7       29.97R
LAFAYETTE      PTCLDY    53  53 100 CALM      29.94S FOG
TERRE HAUTE    CLEAR     57  52  83 S5        29.97S

$$

INZ030>032-037>040-046>048-054>057-064-065-300900-
CENTRAL INDIANA

CITY           SKY/WX    TMP DP  RH WIND       PRES   REMARKS
CP ATTERBURY + PTCLDY    57  52  82 SW5       29.99S
GREENWOOD *+   MOCLDY    60  55  81 CALM      29.98S
INDIANAPOLIS   PTCLDY    58  54  86 SW6       29.96S
-EAGLE CREEK   PTCLDY    60  54  80 SW3       29.96S
KOKOMO +       CLEAR     56  52  86 SW6       29.94F
SHELBYVILLE    MOCLDY    62  55  77 S7        29.97R

$$

INZ033-034-041-042-049-050-058-059-300900-
EAST CENTRAL INDIANA

CITY           SKY/WX    TMP DP  RH WIND       PRES   REMARKS
MUNCIE         MOCLDY    62  57  83 SW6       29.95S
RICHMOND +     CLEAR     55  54  94 SW6       29.97S

$$

INZ060-061-067>069-081>083-085>088-300900-
SOUTHWEST INDIANA

CITY           SKY/WX    TMP DP  RH WIND       PRES   REMARKS
EVANSVILLE     CLEAR     60  58  92 CALM      30.01F
HUNTINGBURG *+ CLEAR     61  56  83 SW5       30.02S

$$

INZ062-063-066-070>080-084-089>092-300900-
SOUTH CENTRAL AND SOUTHEAST INDIANA

CITY           SKY/WX    TMP DP  RH WIND       PRES   REMARKS
BLOOMINGTON    CLEAR     61  50  67 CALM      29.99S
MADISON *+     CLEAR     64  55  72 W3        30.01S
SEYMOUR +      CLEAR     63  54  72 W5        29.99R

$$





USA.gov is the U.S. government's official web portal to all federal, state and local government web resources and services.